Preview of NWS' New Version of Forecast
This preview is not operational and should not be used for support decisions.

Regional Weather Roundup (RWR)

Issued by National Weather Service (NWS)

                            
000
ASUS43 KMKX 220521
RWRWI 

WISCONSIN REGIONAL WEATHER ROUNDUP
NATIONAL WEATHER SERVICE MILWAUKEE/SULLIVAN WI
1200 AM CDT MON JUL 22 2019

NOTE: "FAIR" INDICATES FEW OR NO CLOUDS BELOW 12,000 FEET WITH NO
SIGNIFICANT WEATHER AND/OR OBSTRUCTIONS TO VISIBILITY.

WIZ001-002-006>008-014>016-023>028-220600-
NORTHWEST WISCONSIN
  
CITY           SKY/WX    TMP DP  RH WIND       PRES   REMARKS
SUPERIOR ARPT  FAIR      58  50  75 CALM      30.15R                  
ASHLAND        FAIR      56  56 100 W3        30.13S                  
HAYWARD        MOCLDY    61  60  97 NE3       30.14R                  
SIREN          FAIR      63  54  72 N3        30.14S                  
CUMBERLAND     NOT AVBL                                               
RICE LAKE      FAIR      63  53  68 CALM      30.13S                  
CHETEK         CLOUDY    66  57  72 CALM      30.11F                  
LADYSMITH      FAIR      61  56  84 N3        30.13S                  
EAU CLAIRE     CLOUDY    67  58  72 N5        30.09S                  
MENOMONIE      MOCLDY    63  58  83 NW5       30.11R                  
NEW RICHMOND   MOCLDY    64  59  81 N3        30.13S                  
OSCEOLA        MOCLDY    66  60  80 NW6       30.16R                  
$$
 
WIZ003>005-009-010-017-018-220600-
NORTH CENTRAL WISCONSIN
  
CITY           SKY/WX    TMP DP  RH WIND       PRES   REMARKS
MANITOWISH WTR FAIR      55  55 100 CALM      30.13R                  
ARBOR VITAE    FAIR      58  55  88 CALM      30.12S                  
WOODRUFF       FAIR      58  55  88 CALM      30.12S                  
RHINELANDER    FAIR      57  52  83 CALM      30.13R                  
EAGLE RIVER    FAIR      53  51  91 CALM      30.11S                  
LAND O LAKES   FAIR      55  52  91 CALM      30.13S                  
PHILLIPS       FAIR      57  55  95 CALM      30.12S                  
TOMAHAWK       FAIR      55  53  94 CALM      30.13R                  
MEDFORD        CLOUDY    59  55  85 NE3       30.11R                  
MERRILL        FAIR      58  56  93 CALM      30.12R                  
$$
 
WIZ029-030-035-036-043>047-220600-
CENTRAL WISCONSIN
  
CITY           SKY/WX    TMP DP  RH WIND       PRES   REMARKS
WAUSAU         FAIR      64  55  72 CALM      30.08R                  
MOSINEE        MOCLDY    63  55  77 N6        30.11R                  
MARSHFIELD     MOCLDY    66  56  70 NE8       30.09R                  
STEVENS POINT  CLOUDY    64  58  82 N3        30.10R                  
WAUPACA        NOT AVBL                                               
WAUTOMA        FAIR      68  61  78 NE6       30.06R                  
WISC RAPIDS    MOCLDY    68  58  70 N7        30.09R                  
CAMP DOUGLAS   NOT AVBL                                               
$$
 
WIZ011>013-019>022-031-037>040-048>050-220600-
NORTHEAST WISCONSIN
  
CITY           SKY/WX    TMP DP  RH WIND       PRES   REMARKS
ANTIGO         FAIR      57  53  87 N7        30.11R                  
SHAWANO        CLOUDY    66  57  71 E6        30.08R                  
OCONTO         CLOUDY    65  51  60 NE5       30.07R                  
STURGEON BAY   CLOUDY    63  52  67 NE6       30.07S                  
GREEN BAY      CLOUDY    67  57  70 NE8       30.06R                  
MANITOWOC      FAIR      64  58  80 VRB5      30.06R                  
APPLETON       MOCLDY    64  50  59 E7        30.06R                  
CLINTONVILLE   MOCLDY    65  57  75 NE6       30.08R                  
OSHKOSH        CLOUDY    68  56  65 E13       30.05R                  
$$
 
WIZ032>034-041-042-053>061-220600-
SOUTHWEST WISCONSIN
  
CITY           SKY/WX    TMP DP  RH WIND       PRES   REMARKS
LA CROSSE      LGT RAIN  70  62  76 NW5       30.07R                  
SPARTA         FAIR      62  60  94 CALM      30.08S                  
VIROQUA        FAIR      66  64  91 N6        30.08S                  
BOSCOBEL       FAIR      67  60  78 CALM      30.04S                  
PRAIRIE DU CHI FAIR      69  60  73 NW5       30.04S                  
PLATTEVILLE    FAIR      67  63  89 NW5       30.05S                  
$$

WIZ056-057-062-063-064-067-068-220600-
SOUTH CENTRAL WISCONSIN
  
CITY           SKY/WX    TMP DP  RH WIND       PRES   REMARKS
REEDSBURG      FAIR      67  61  80 N8        30.04S                  
BARABOO/DELLS  FAIR      68  59  72 NE3       30.05R                  
LONE ROCK      FAIR      70  61  73 NW6       30.03S                  
MINERAL POINT  FAIR      68  63  83 NW3       30.05S                  
MADISON        FAIR      69  60  73 NE6       30.03R                  
MIDDLETON      FAIR      68  61  77 CALM      30.04R                  
WATERTOWN      FAIR      66  60  81 E7        30.04R                  
MONROE         FAIR      69  60  73 NW5       30.03S                  
JANESVILLE     FAIR      68  59  73 CALM      30.02S                  
$$
 
WIZ051-052-058>065-066-070>072-220600-
SOUTHEAST WISCONSIN
  
CITY           SKY/WX    TMP DP  RH WIND       PRES   REMARKS
MILWAUKEE      MOCLDY    68  58  70 N8        30.02R                  
WAUKESHA       FAIR      63  55  77 NE5       30.04S                  
MILWAUKEE/TIMM FAIR      64  55  72 N7        30.04S                  
RACINE         FAIR      67  58  72 N10       30.03R                  
KENOSHA        FAIR      68  60  75 N7        30.02R                  
FOND DU LAC    MOCLDY    69  59  70 E9        30.05R                  
SHEBOYGAN      FAIR      65  58  78 NE13      30.04R                  
WEST BEND      FAIR      63  61  94 NE6       30.05R                  
JUNEAU         FAIR      65  59  81 CALM      30.05S                  
$$

LSZ147-162-220600-
LAKE SUPERIOR
  
STATION/POSITION TIME  TEMP    WIND        PRES    WAVE
                       AIR SEA DIR/SP/G            HT/PER
                 (UTC) (F)     (DEG/KT/KT) (MB)    (FT/S)
W MID LAKE BUOY  0450   55 49  270/  6/  6 1019.4F   0
$$
 
LMZ867-665-643>646-220600-
LAKE MICHIGAN
  
STATION/POSITION TIME  TEMP    WIND        PRES    WAVE
                       AIR SEA DIR/SP/G            HT/PER
                 (UTC) (F)     (DEG/KT/KT) (MB)    (FT/S)
CHAMBERS ISLAND  0440   67     360/ 14/ 16 1017.6R
S GREEN BAY BUOY 0400   73 73   50/ 16/ 19 1017.6
N MID LAKE BUOY  0500   63 66   10/  8/ 12 1018.3
NORTHPORT PIER   0440   65     340/  7/  8 1017.9R
KEWAUNEE LAKESHO 0436   59      30/  4/  8 1017.2R
SHEBOYGAN LAKESH 0500   60     350/ 12/ 13 1016.9R
ATWATER BUOY     0400   62 59  330/  6/  8 1016.9R   1/ 3
MILWAUKEE LAKESH 0400   68     350/  9/ 10   N/A
S MID LAKE BUOY  0500   68 68  360/ 12/ 14 1015.6
KENOSHA   LAKESH 0500   66     360/ 14/ 16 1015.9
$$

TC  - TEMPERATURE IN CELSIUS
VSB - VISIBILITY IN STATUTE MILES
WCI - WIND CHILL INDEX
HX  - HEAT INDEX